www.pogodaiklimat.ru

Погода и климат >> Архив погоды >> Мали >> Кутиала


ПОГОДА в Кутиале

  • Прогноз погоды в Кутиале
  • Монитор погоды в Кутиале

АРХИВ ПОГОДЫ в Кутиале

Время (UTC), дата Ветер
(напр.,м/с)
 
Видим.   Явления Облачность Т
(С)
Тd
(С)
f
(%)
Тe
(С)
Тes
(С)
Комфортность P
(гПа)
Po
(гПа)
Тmin
(С)
Tmax
(С)
R
(мм)
R24
(мм)
S
(см)
12 17.06 Ю 4 10 км {гроза, дождь} 9/0
[Ac lent]
+33.0 +21.4 51 +41 +45 опасность
перегрева
1011.1 971.0 3
15 17.06 Ю 5 10 км 9/0
[Ac As]
+34.0 +23.5 54 +45 +47 опасность
перегрева
1009.8 969.7
18 17.06 З 2 10 км 9/0
[Ac As]
+34.3 +21.7 48 +42 +43 опасность
перегрева
1009.7 969.6 +35.0 3
21 17.06 Ю 2 10 км 9/0
[Ac lent Ci sp]
+29.6 +20.9 60 +37 +37 очень
душно
1011.8 971.2
00 18.06 Ю 3 10 км 9/0
[As trans]
+28.0 +20.6 64 +35 +35 очень
душно
1012.3 972.0
03 18.06 Ю 3 10 км 9/0
[Ac lent Ci sp]
+26.2 +20.7 72 +33 +33 очень
душно
1012.9 972.5
06 18.06 Ю 2 10 км 9/0
[Ac trans Ci]
+25.2 +23.5 90 +34 +34 очень
душно
1011.6 971.3 +24.6 3
09 18.06 Ю 4 10 км 5/0
[Ci sp]
+30.0 +22.3 63 +39 +45 очень
душно
1012.9 972.5
12 18.06 Ю 3 10 км 5/0
[Ci sp]
+34.0 +22.2 50 +43 +58 опасность
перегрева
1012.1 971.8
15 18.06 В 3 10 км 4/1 900 м
[Sc Ci sp]
+38.5 +18.5 31 +42 +51 опасность
перегрева
1009.4 969.5
18 18.06 ЮВ 3 10 км 4/1 900 м
[Sc Ci sp]
+38.5 +16.7 28 +41 +41 опасность
перегрева
1009.4 969.4 +40.0
21 18.06 Ю 3 10 км 3/0
[Ci fib]
+34.3 +18.0 38 +38 +38 очень
душно
1010.7 970.7
00 19.06 ЮЗ 2 10 км ясно +31.3 +19.2 49 +37 +37 очень
душно
1011.1 971.2
03 19.06 ЮЗ 4 10 км ясно +29.6 +22.2 64 +38 +38 очень
душно
1010.6 970.8
06 19.06 ЮЗ 3 10 км 3/0
[Ac lent]
+28.5 +22.6 70 +37 +37 очень
душно
1010.4 970.6 +28.0
09 19.06 ЮЗ 5 10 км 9/0
[Ac cast]
+32.0 +21.9 55 +41 +42 опасность
перегрева
1011.5 971.6
12 19.06 ЮЗ 4 10 км 8/0
[Ac cast]
+37.0 +21.2 40 +44 +50 опасность
перегрева
1011.0 971.2
15 19.06 СВ 2 10 км 6/1 900 м
[Cu hum Ac lent]
+39.0 +18.2 30 +43 +49 опасность
перегрева
1008.9 969.2
18 19.06 Ю 4 10 км 4/1 900 м
[Cu hum Ac lent]
+38.0 +19.9 35 +43 +44 опасность
перегрева
1008.8 968.9 +40.0
21 19.06 Ю 3 10 км 8/0
[Ac lent]
+34.5 +20.7 45 +42 +42 опасность
перегрева
1009.7 969.8
00 20.06 ЮЗ 4 10 км зарница 6/1 1200 м
[Cb cap Ac lent]
+32.0 +21.9 55 +41 +41 опасность
перегрева
1009.2 969.5
03 20.06 ЮЗ 4 10 км гроза без осадков 8/1 1200 м
[Cb cap Ac lent]
+26.0 +19.2 66 +31 +31 очень
душно
1009.3 969.4
06 20.06 Ю 2 10 км {гроза} 5/0
[Ac lent]
+26.5 +20.5 70 +33 +33 очень
душно
1009.0 969.1 +25.5
09 20.06 ЮЗ 7 10 км 6/0
[Ac lent]
+31.5 +22.2 58 +41 +42 опасность
перегрева
1010.2 970.3
12 20.06 ЮЗ 3 10 км 5/0
[Ac lent]
+36.5 +20.6 40 +43 +53 опасность
перегрева
1009.8 970.1
15 20.06 З 2 10 км 4/1 900 м
[Cu hum Ci sp]
+39.0 +18.3 30 +43 +54 опасность
перегрева
1008.6 968.7
18 20.06 СЗ 3 10 км 5/1 900 м
[Cu med, cong Ci sp]
+37.7 +20.9 38 +44 +45 опасность
перегрева
1006.6 966.8 +39.5
21 20.06 Ю 5 10 км зарница 8/3 900 м
[Cb cap Ac As]
+31.0 +19.0 49 +36 +36 очень
душно
1011.0 970.9
00 21.06 Ю 6 10 км гроза без осадков 8/0 900 м
[Ac As]
+26.6 +18.8 62 +32 +32 очень
душно
1012.7 972.5
03 21.06 С 3 10 км {гроза} 9/0
[Ac As]
+26.2 +19.1 65 +31 +31 очень
душно
1008.8 968.9
06 21.06 ЮЗ 3 10 км {гроза} 8/0
[Ac trans Ci sp]
+25.5 +19.4 69 +31 +31 очень
душно
1010.4 970.3 +25.0
09 21.06 ЮЗ 4 10 км 6/0
[Ac lent]
+30.0 +18.7 51 +35 +38 очень
душно
1012.2 971.9
12 21.06 Ю 4 10 км 4/0
[Ci sp]
+35.0 +18.6 38 +39 +52 опасность
солнечного
удара
1011.6 971.4
15 21.06 ЮЗ 3 10 км 4/0
[Ci sp]
+37.0 +19.4 36 +42 +52 опасность
перегрева
1009.4 969.4
18 21.06 Ю 4 10 км 3/0
[Ci sp]
+36.2 +19.8 38 +42 +42 опасность
перегрева
1009.5 969.4 +38.5
21 21.06 Ю 4 10 км 3/0
[Ci sp]
+32.0 +22.7 58 +42 +42 опасность
перегрева
1011.1 970.9
00 22.06 Ю 4 10 км ясно +30.0 +23.3 67 +40 +40 очень
душно
1011.5 971.5
03 22.06 ЮЗ 4 10 км ясно +28.5 +23.5 74 +39 +39 очень
душно
1010.1 970.2
06 22.06 ЮЗ 3 10 км 5/0
[Ci fib]
+27.5 +26.2 93 +42 +42 опасность
перегрева
1010.8 970.8 +27.2
09 22.06 ЮЗ 5 10 км 4/0
[Ci sp]
+31.0 +22.4 60 +40 +45 очень
душно
1012.8 972.6
12 22.06 ЮЗ 4 10 км 4/1 1200 м
[Cb calv Ci sp]
+35.0 +20.4 43 +42 +53 опасность
перегрева
1010.7 970.7
15 22.06 ЮВ 2 10 км гроза, ливневой дождь 10/3 1200 м
[Cb cap Ac As]
+28.0 +22.2 71 +37 +39 очень
душно
1010.2 969.7
18 22.06 ЮВ 6 10 км гроза без осадков 10/1 1200 м
[Cb cap Ac As]
+25.0 +18.8 68 +30 +30 душно 1012.1 971.1 +38.0 9
21 22.06 З 3 10 км {гроза} 9/0
[Ac As]
+24.5 +19.9 76 +30 +30 очень
душно
1011.1 970.4
00 23.06 ЮЗ 3 10 км {гроза} 9/0
[Ac As]
+24.8 +19.8 74 +30 +30 душно 1010.5 970.2
03 23.06 ЮЗ 3 10 км 8/0
[Ac lent]
+24.0 +20.2 79 +30 +30 очень
душно
1010.9 970.0
06 23.06 ЮЗ 3 10 км 8/0
[Ac lent]
+23.0 +21.1 89 +31 +31 очень
душно
1011.6 970.5 +22.8 9
09 23.06 ЮЗ 4 10 км 5/0
[Ac trans Ci sp]
+26.7 +19.6 65 +32 +38 очень
душно
1012.7 971.8
12 23.06 ЮЗ 3 10 км 5/0
[Ci sp]
+32.5 +19.6 47 +38 +54 опасность
солнечного
удара
1010.6 970.2
15 23.06 Ю 3 10 км 8/0
[Ac lent Ci sp]
+35.3 +19.4 39 +40 +47 очень
душно
1008.8 968.6
18 23.06 ЮЗ 2 10 км 9/0
[As trans]
+33.5 +20.3 46 +40 +40 очень
душно
1008.6 968.2 +36.0
21 23.06 ЮЗ 2 10 км 9/0
[Ac lent Ci sp]
+30.7 +21.7 59 +39 +39 очень
душно
1009.4 969.0
00 24.06 ЮЗ 3 10 км 8/0
[Ac lent Ci sp]
+29.0 +23.3 71 +39 +39 очень
душно
1010.7 970.5
03 24.06 Ю 3 10 км 5/0
[Ci sp]
+27.0 +24.2 85 +38 +38 очень
душно
1009.0 968.9
06 24.06 ЮЗ 2 10 км 9/0
[As trans]
+26.0 +23.9 88 +36 +36 очень
душно
1009.6 969.3 +25.5

 

Местоположение метеостанции Кутиала (Мали): широта 12.38 долгота -5.47 высота над уровнем моря 367 м.

В архиве по умолчанию представлена погода в Кутиале за последнюю неделю. Архивные данные за месяц целиком и за предыдущие месяцы, начиная с января 2011 года, Вы можете получить, выбрав интересующий диапазон дат из раскрывающегося списка и нажав кнопку "Ввод!".


*Определитесь, кто Вы:
робот инопланетянин человек

Внимание! Время в таблицах - всемирное. Для получения местного времени необходимо прибавить поправку, которая равна 0 ч.

Смотрите также архив погоды в соседних городах и на ближайших метеорологических станциях:

Погода в Сикасо (Мали) (117 км)
Погода в Сане (Мали) (126 км)
Погода в Сегу (Мали) (135 км)
Погода в Бобо-Диуласо (Буркина-Фасо) (184 км)
Погода в Дедугу (Буркина-Фасо) (216 км)
Погода в Бугуни (Мали) (245 км)
Погода в Бамако (Мали) (270 км)
Погода в Мопти (Мали) (280 км)
Погода в Боромо (Буркина-Фасо) (285 км)
Погода в Корого (Кот-д'Ивуар) (330 км)

Пояснения к столбцам:

Ветер - указаны скорость ветра в м/с - средняя за 10 мин, порывы в срок и между сроками (в фигурных скобках) и направление, откуда дует ветер: С - северный, СВ - северо-восточный, В - восточный, ЮВ - юго-восточный, Ю - южный, ЮЗ - юго-западный, З - западный, СЗ - северо-западный.
Видимость - горизонтальная дальность видимости в метрах или километрах. При видимости от 1 до 10 км при отсутствии осадков обычно наблюдается дымка, при ухудшении видимости до 1 км и менее - туман. В сухую погоду видимость может ухудшаться дымом, пылью или мглою.
Явления - указаны атмосферные явления, наблюдавшиеся в срок или в последний час перед сроком; фигурными скобками обозначены явления, наблюдавшиеся между сроками (за 1-3 часа до срока); квадратными скобками обозначены град или гололедные отложения с указанием их диаметра в мм.
Облачность - указаны через наклонную черту общая и нижняя облачность в баллах и высота нижней границы облаков в метрах; квадратными скобками обозначены формы облаков: Ci - перистые, Cs - перисто-слоистые, Cc - перисто-кучевые, Ac - высококучевые, As - высокослоистые, Sc - слоисто-кучевые, Ns - слоисто-дождевые, Cu - кучевые, Cb - кучево-дождевые. Подробнее классификацию облаков см. в Атласе облаков (PDF).
T - Температура воздуха - температура, измеренная на высоте 2 м над землей.
Td - Температура точки росы - температура, при понижении до которой содержащийся в воздухе водяной пар достигнет насыщения.
f - Относительная влажность воздуха - влажноcть воздуха, измеренная на высоте 2 м над землей.
Te - Эффективная температура - температура, которую ощущает одетый по сезону человек в тени. Характеристика душности погоды. При расчете учитывается влияние влажности воздуха и скорости ветра на теплоощущения человека.
Tes - Эффективная температура на солнце - температура, которую ощущает человек, с поправкой на солнечный нагрев. Характеристика знойности погоды. Зависит от высоты солнца над горизонтом, облачности и скорости ветра. Ночью, в пасмурную погоду, а также при ветре 12 м/с и более поправка равна нулю.
P - Атмосферное давление - приведенное к уровню моря атмосферное давление.
Po - Атмосферное давление - измеренное на уровне метеостанции атмосферное давление.
Tmin - Минимальная температура - минимум температуры воздуха на высоте 2 м над землей.
Tmax - Максимальная температура - максимум температуры воздуха на высоте 2 м над землей.
R - Количество осадков - Количество выпавших осадков за период времени, мм. При наведении курсора мыши на число - период времени, за который выпало указанное количество осадков.
R24 - Количество осадков - Количество выпавших осадков за 24 часа, мм.
S - Снежный покров - Высота снежного покрова, см. При наведении курсора мыши на число - состояние снежного покрова и степень покрытия местности в баллах.